Regional Weather Roundup
Issued by NWS Grand Forks, ND

Home | Current Version | Previous Version | Text Only | Print | Product List | Glossary On
Versions: 1 2 3 4 5 6 7 8 9 10 11 12 13 14 15 16 17 18 19 20 21 22 23 24 25 26 27 28 29 30 31 32 33 34 35 36 37 38 39 40 41 42 43 44 45 46 47 48 49 50
000
ASUS43 KFGF 031231
RWRFGF
PRAIRIE TO PINES  WEATHER ROUNDUP
NATIONAL WEATHER SERVICE EASTERN NORTH DAKOTA/GRAND FORKS ND
700 AM CDT FRI JUL 03 2015

 **SATELLITE DATA USED TO AUGMENT SKY COVER AT AUTOMATED STATIONS**
 *****  WEATHER ACROSS EASTERN NORTH DAKOTA  *****

CITY           SKY/WX    TMP DP  RH WIND       PRES   REMARKS
GRAND FORKS    FOG       62  61  96 W5        29.92R VSB 1
6HR MIN TEMP:  59; 6HR MAX TEMP:  67;

GRAND FRKS AFB SUNNY     64  63  94 W3        29.94R FOG
GRAND FRKS NWS   N/A     63 N/A N/A MISG        N/A
DEVILS LAKE    CLOUDY    61  57  88 W5        29.96S VSB 1/4
6HR MIN TEMP:  59; 6HR MAX TEMP:  66;

FARGO          PTSUNNY   64  62  93 W3        29.93R FOG
WAHPETON ARPT  SUNNY     59  55  88 CALM      29.96S
$$

 ***** WEATHER ACROSS CENTRAL AND WESTERN NORTH DAKOTA  *****

CITY           SKY/WX    TMP DP  RH WIND       PRES   REMARKS
BISMARCK       CLOUDY    63  62  97 W5        30.02R FOG
6HR MIN TEMP:  62; 6HR MAX TEMP:  66;

MINOT          CLOUDY    60  58  92 W3        29.99R FOG
6HR MIN TEMP:  60; 6HR MAX TEMP:  66;

JAMESTOWN      CLOUDY    64  62  93 W3        29.97R FOG
6HR MIN TEMP:  61; 6HR MAX TEMP:  66;

MINOT AFB      PTCLDY    61  61 100 NW3       29.99R FOG
GARRISON         N/A     61  58  90 CALM      30.01R
WILLISTON      PTCLDY    60  58  92 N3        30.02S FOG
6HR MIN TEMP:  59; 6HR MAX TEMP:  67;

DICKINSON      PTCLDY    59  57  93 S3        30.03R FOG
6HR MIN TEMP:  56; 6HR MAX TEMP:  62;

HETTINGER      PTCLDY    56  54  93 NW3       30.07R FOG
6HR MIN TEMP:  53; 6HR MAX TEMP:  58;

$$

 *****  OTHER AIRPORT OBSERVATIONS IN OUR AREA  *****

CITY           SKY/WX    TMP DP  RH WIND       PRES   REMARKS
WALHALLA       FAIR      63  63 100 MISG      29.93S FOG
GRAFTON AIRPOR FOG       63  63 100 W5        29.93R VSB 1/2
VALLEY CITY AR FAIR      63  63 100 CALM      29.96S FOG
CANDO          FOG       59  57  94 W3        29.98R VSB 1
CAVALIER APRT  FOG       64  63  94 W5        29.92S VSB 3/4
GWINNER        CLOUDY    63  63 100 SW9       29.97S
SHEYENNE NWR     N/A     61  60  98 SW2       29.95
ROLLA          FAIR      63  63 100 NW7       29.99S FOG
 ***** THE ABOVE OBSERVATIONS ARE NON NWS ARE NOT QUALITY
       CONTROLLED AND MAY MIS-REPORT RAIN FOR SNOW...
$$

  *****  WEATHER ACROSS NORTHERN MINNESOTA  *****

CITY           SKY/WX    TMP DP  RH WIND       PRES   REMARKS
FLAG ISLAND    SUNNY     64  61  88 NW9       29.87R FOG
WARROAD        SUNNY     63  57  82 W7        29.90S FOG
ROSEAU         HAZE      63  57  82 W5        29.90S VSB<1/4
HALLOCK        FOG       61  57  88 CALM      29.92R VSB<1/4
THF RVR FALLS  CLOUDY    63  61  94 CALM      29.94R VSB<1/4
6HR MIN TEMP:  59; 6HR MAX TEMP:  64;

BAUDETTE       SUNNY     62  60  93 W3        29.88R FOG
6HR MIN TEMP:  60; 6HR MAX TEMP:  66;

WASKISH        MOSUNNY   66  63  88 W6        29.91R
CROOKSTON      FOG       61  59  94 CALM      29.95R VSB<1/4
$$
  *****  WEATHER ACROSS CENTRAL AND WEST MINNESOTA  *****

CITY           SKY/WX    TMP DP  RH WIND       PRES   REMARKS
FOSSTON        PTSUNNY   59  57  94 CALM      29.95R FOG
BEMIDJI        CLOUDY    62  59  88 W6        29.93S
PARK RAPIDS    MOSUNNY   60  55  83 W5        29.94R
6HR MIN TEMP:  57; 6HR MAX TEMP:  61;

ELBOW LAKE     FAIR      59  57  93 S5        29.98R
6HR MIN TEMP:  56; 6HR MAX TEMP:  59;

WADENA         SUNNY     61  55  82 W3        29.95S
DETROIT LAKES  SUNNY     63  61  94 SW5       29.96R
MOORHEAD       SUNNY     61  61 100 CALM      29.95R FOG
FERGUS FALLS   SUNNY     61  61 100 S5        29.97S
MORRIS MN      SUNNY     59  57  94 CALM      29.97S FOG
STAPLES        MOSUNNY   61  54  77 W3        29.96R
$$
  *****  WEATHER ELSEWHERE ACROSS MINNESOTA  *****

CITY           SKY/WX    TMP DP  RH WIND       PRES   REMARKS
DULUTH         LGT RAIN  64  52  64 W14       29.92R
6HR MIN TEMP:  61; 6HR MAX TEMP:  64; 6HR PCP: TRACE;

INTRNTL FALLS  PTSUNNY   63  61  93 W6        29.88R FOG
6HR MIN TEMP:  62; 6HR MAX TEMP:  66;

ELY            LGT RAIN  61  55  82 SW3       29.89R
CLOQUET        LGT RAIN  61  54  77 SW6       29.93S
WHEATON        SUNNY     59  55  88 CALM      29.98S
BRAINERD       CLOUDY    57  53  86 S6        29.95S
6HR MIN TEMP:  52; 6HR MAX TEMP:  58;

HIBBING        PTSUNNY   60  53  77 CALM      29.91R
6HR MIN TEMP:  58; 6HR MAX TEMP:  62;

ALEXANDRIA     SUNNY     58  55  90 SW5       29.99R
6HR MIN TEMP:  56; 6HR MAX TEMP:  60;

SAINT CLOUD    SUNNY     54  52  93 CALM      29.97S
6HR MIN TEMP:  50; 6HR MAX TEMP:  57;

MINNEAPOLIS    MOSUNNY   61  55  81 S3        29.98S
6HR MIN TEMP:  60; 6HR MAX TEMP:  67;

$$

  *****  WEATHER ACROSS SOUTH DAKOTA  *****

CITY           SKY/WX    TMP DP  RH WIND       PRES   REMARKS
SIOUX FALLS    MOSUNNY   54  53  97 CALM      30.02R FOG
6HR MIN TEMP:  51; 6HR MAX TEMP:  58;

BROOKINGS      SUNNY     55  52  88 CALM      30.04R
WATERTOWN      SUNNY     57  55  93 CALM      30.00S FOG
6HR MIN TEMP:  54; 6HR MAX TEMP:  59;

HURON          FOG       58  58 100 S3        30.00R VSB 1/4
6HR MIN TEMP:  57; 6HR MAX TEMP:  61;

SISSETON         N/A     66  61  84 W13       29.95R
ABERDEEN       CLEAR     61  60  97 S3        29.98S FOG
6HR MIN TEMP:  60; 6HR MAX TEMP:  63;

MITCHELL       FOG       62  61  96 CALM      30.02R VSB<1/4
PIERRE         PTCLDY    62  61  96 CALM      30.00R FOG
6HR MIN TEMP:  60; 6HR MAX TEMP:  65; 6HR PCP: TRACE;

MOBRIDGE       FOG       63  63 100 NW5       29.99R VSB 1
RAPID CITY     CLEAR     57  55  93 W5        30.09R
6HR MIN TEMP:  57; 6HR MAX TEMP:  62;

$$

  *****  SOME WEATHER IN NEARBY STATES *****

CITY           SKY/WX    TMP DP  RH WIND       PRES   REMARKS
GLASGOW MT     CLEAR     60  55  83 E8        30.00S HAZE
6HR MIN TEMP:  59; 6HR MAX TEMP:  64;

GREAT FALLS MT CLEAR     59  49  69 SW8       30.00F
6HR MIN TEMP:  58; 6HR MAX TEMP:  71;

CHEYENNE WY    CLEAR     55  52  89 N6        30.24R
6HR MIN TEMP:  55; 6HR MAX TEMP:  64;

SCOTTSBLUFF NE CLOUDY    62  59  90 NE3       30.13F
6HR MIN TEMP:  61; 6HR MAX TEMP:  68;

OMAHA NE       SUNNY     57  56  96 N6        30.01R
6HR MIN TEMP:  56; 6HR MAX TEMP:  64;

DES MOINES IA  MOSUNNY   60  55  83 CALM      29.99R
6HR MIN TEMP:  59; 6HR MAX TEMP:  64;

DAVENPORT IA   PTSUNNY   58  55  90 NE5       29.98R
6HR MIN TEMP:  56; 6HR MAX TEMP:  61;

CHICAGO IL     PTSUNNY   59  54  83 N3        29.98R
6HR MIN TEMP:  55; 6HR MAX TEMP:  59;

EAU CLAIRE WI  SUNNY     57  54  89 CALM      29.98S
6HR MIN TEMP:  53; 6HR MAX TEMP:  58;

LA CROSSE WI   CLOUDY    57  56  96 SE5       29.99F FOG
6HR MIN TEMP:  54; 6HR MAX TEMP:  59;

$$

  *****  SOME NATIONAL WEATHER *****

CITY           SKY/WX    TMP DP  RH WIND       PRES   REMARKS
LA GUARDIA NY  MOSUNNY   69  51  52 N10       29.97R
6HR MIN TEMP:  67; 6HR MAX TEMP:  72;

RALEIGH NC     CLOUDY    72  70  94 S5        29.98R FOG
6HR MIN TEMP:  69; 6HR MAX TEMP:  72;

ATLANTA GA     PTSUNNY   77  71  82 SW13      29.98S
6HR MIN TEMP:  75; 6HR MAX TEMP:  77; 6HR PCP:  0.02;

NEW ORLEANS LA PTSUNNY   80  74  81 CALM      30.05R
6HR MIN TEMP:  78; 6HR MAX TEMP:  81;

OKLAHOMA CITY  MOCLDY    70  70 100 S6        29.93R
6HR MIN TEMP:  67; 6HR MAX TEMP:  73; 6HR PCP:  2.44;

ALBUQUERQUE NM CLOUDY    71  54  54 E13       30.17R
6HR MIN TEMP:  69; 6HR MAX TEMP:  72;

SALT LAKE CITY MOCLDY    75  50  41 S8        30.00R
6HR MIN TEMP:  75; 6HR MAX TEMP:  81;

LOS ANGELES CA CLOUDY    63  61  93 W3        29.95S
6HR MIN TEMP:  62; 6HR MAX TEMP:  65;




USA.gov is the U.S. government's official web portal to all federal, state and local government web resources and services.